• In Belgien
  • Länderverzeichnis
  • Für 7 Tage
  • Wassertemperatur
  • Satellitenkarten
  • Wetterkarte
  • Widgets
  • user-avatar
    Anmelden

    Stündliche Wetter Shkoder

    Heute, 19 September, Mittwoch

    Zeit Temperatur Niederschläge Wind Luftdruck Luftfeuchtigkeit
    00:00 +20°C° 0 mm 2 m/S 743 mmHg 60%
    01:00 +21°C° 0 mm 1 m/S 743 mmHg 61%
    02:00 +20°C° 0 mm 2 m/S 743 mmHg 63%
    03:00 +20°C° 0 mm 2 m/S 743 mmHg 64%
    04:00 +19°C° 0 mm 2 m/S 743 mmHg 65%
    05:00 +20°C° 0 mm 2 m/S 743 mmHg 63%
    06:00 +21°C° 0 mm 2 m/S 743 mmHg 61%
    07:00 +23°C° 0 mm 2 m/S 743 mmHg 59%
    08:00 +26°C° 0 mm 1 m/S 743 mmHg 53%
    09:00 +28°C° 0 mm 1 m/S 743 mmHg 47%
    10:00 +30°C° 0 mm 1 m/S 743 mmHg 41%
    11:00 +30°C° 0 mm 2 m/S 742 mmHg 40%
    12:00 +31°C° 0 mm 2 m/S 742 mmHg 38%
    13:00 +31°C° 0 mm 3 m/S 742 mmHg 37%
    14:00 +31°C° 0 mm 2 m/S 742 mmHg 39%
    15:00 +30°C° 0 mm 2 m/S 742 mmHg 41%
    16:00 +30°C° 0 mm 2 m/S 741 mmHg 44%
    17:00 +28°C° 0 mm 2 m/S 741 mmHg 49%
    18:00 +26°C° 0 mm 2 m/S 742 mmHg 54%
    19:00 +24°C° 0 mm 1 m/S 742 mmHg 59%
    20:00 +23°C° 0 mm 1 m/S 742 mmHg 60%
    21:00 +23°C° 0 mm 1 m/S 742 mmHg 61%
    22:00 +21°C° 0 mm 2 m/S 742 mmHg 61%
    23:00 +21°C° 0 mm 2 m/S 742 mmHg 62%

    Morgen, 20 September, Donnerstag

    Zeit Temperatur Niederschläge Wind Luftdruck Luftfeuchtigkeit
    00:00 +21°C° 0 mm 2 m/S 742 mmHg 63%
    01:00 +21°C° 0 mm 2 m/S 742 mmHg 64%
    02:00 +20°C° 0 mm 2 m/S 742 mmHg 64%
    03:00 +20°C° 0 mm 2 m/S 742 mmHg 65%
    04:00 +20°C° 0 mm 2 m/S 742 mmHg 66%
    05:00 +21°C° 0 mm 2 m/S 742 mmHg 64%
    06:00 +23°C° 0 mm 2 m/S 742 mmHg 62%
    07:00 +24°C° 0 mm 2 m/S 742 mmHg 59%
    08:00 +26°C° 0 mm 2 m/S 742 mmHg 53%
    09:00 +28°C° 0 mm 1 m/S 742 mmHg 46%
    10:00 +30°C° 0 mm 1 m/S 742 mmHg 39%
    11:00 +30°C° 0 mm 1 m/S 742 mmHg 38%
    12:00 +31°C° 0 mm 2 m/S 742 mmHg 37%
    13:00 +31°C° 0 mm 2 m/S 741 mmHg 36%
    14:00 +31°C° 0 mm 2 m/S 741 mmHg 37%
    15:00 +30°C° 0 mm 2 m/S 741 mmHg 39%
    16:00 +30°C° 0 mm 2 m/S 741 mmHg 41%
    17:00 +28°C° 0 mm 2 m/S 741 mmHg 46%
    18:00 +26°C° 0 mm 2 m/S 741 mmHg 51%
    19:00 +23°C° 0 mm 1 m/S 741 mmHg 57%
    20:00 +23°C° 0 mm 2 m/S 741 mmHg 56%
    21:00 +23°C° 0 mm 2 m/S 742 mmHg 55%
    22:00 +21°C° 0 mm 2 m/S 742 mmHg 54%
    23:00 +21°C° 0 mm 2 m/S 742 mmHg 53%

    übermorgen, 21 September, Freitag

    Zeit Temperatur Niederschläge Wind Luftdruck Luftfeuchtigkeit
    00:00 +21°C° 0 mm 2 m/S 741 mmHg 53%
    01:00 +20°C° 0 mm 2 m/S 741 mmHg 52%
    02:00 +20°C° 0 mm 2 m/S 741 mmHg 52%
    03:00 +20°C° 0 mm 2 m/S 741 mmHg 52%
    04:00 +20°C° 0 mm 2 m/S 741 mmHg 52%
    05:00 +21°C° 0 mm 2 m/S 741 mmHg 51%
    06:00 +21°C° 0 mm 2 m/S 741 mmHg 51%
    07:00 +23°C° 0 mm 2 m/S 742 mmHg 51%
    08:00 +25°C° 0.1 mm 1 m/S 742 mmHg 48%
    09:00 +26°C° 0.1 mm 1 m/S 742 mmHg 44%
    10:00 +28°C° 0.1 mm 1 m/S 742 mmHg 40%
    11:00 +29°C° 0 mm 1 m/S 742 mmHg 39%
    12:00 +29°C° 0 mm 2 m/S 741 mmHg 38%
    13:00 +30°C° 0 mm 2 m/S 741 mmHg 37%
    14:00 +30°C° 0 mm 2 m/S 741 mmHg 38%
    15:00 +30°C° 0 mm 2 m/S 741 mmHg 39%
    16:00 +29°C° 0 mm 2 m/S 740 mmHg 41%
    17:00 +27°C° 0 mm 1 m/S 741 mmHg 47%
    18:00 +25°C° 0 mm 1 m/S 741 mmHg 53%
    19:00 +22°C° 0 mm 1 m/S 741 mmHg 59%
    20:00 +22°C° 0 mm 1 m/S 741 mmHg 60%
    21:00 +22°C° 0 mm 1 m/S 742 mmHg 61%
    22:00 +21°C° 0 mm 1 m/S 742 mmHg 62%
    23:00 +21°C° 0 mm 1 m/S 742 mmHg 62%

    22 September, Samstag

    Zeit Temperatur Niederschläge Wind Luftdruck Luftfeuchtigkeit
    00:00 +21°C° 0 mm 1 m/S 742 mmHg 63%
    01:00 +21°C° 0 mm 1 m/S 742 mmHg 63%
    02:00 +21°C° 0 mm 1 m/S 742 mmHg 63%
    03:00 +20°C° 0 mm 1 m/S 742 mmHg 63%
    04:00 +20°C° 0 mm 1 m/S 742 mmHg 63%
    05:00 +21°C° 0 mm 1 m/S 742 mmHg 60%
    06:00 +22°C° 0 mm 1 m/S 742 mmHg 57%
    07:00 +24°C° 0 mm 1 m/S 742 mmHg 54%
    08:00 +25°C° 0 mm 1 m/S 742 mmHg 50%
    09:00 +27°C° 0 mm 1 m/S 742 mmHg 45%
    10:00 +29°C° 0 mm 1 m/S 742 mmHg 40%
    11:00 +30°C° 0 mm 2 m/S 742 mmHg 39%
    12:00 +30°C° 0 mm 2 m/S 742 mmHg 39%
    13:00 +31°C° 0 mm 3 m/S 741 mmHg 38%
    14:00 +30°C° 0 mm 3 m/S 741 mmHg 41%
    15:00 +30°C° 0 mm 2 m/S 741 mmHg 44%
    16:00 +29°C° 0 mm 2 m/S 741 mmHg 47%
    17:00 +27°C° 0 mm 2 m/S 741 mmHg 56%
    18:00 +24°C° 0 mm 1 m/S 741 mmHg 65%
    19:00 +22°C° 0 mm 1 m/S 742 mmHg 73%
    20:00 +22°C° 0 mm 1 m/S 742 mmHg 73%
    21:00 +22°C° 0 mm 1 m/S 742 mmHg 74%
    22:00 +22°C° 0 mm 1 m/S 743 mmHg 74%
    23:00 +21°C° 0 mm 1 m/S 743 mmHg 74%

    23 September, Sonntag

    Zeit Temperatur Niederschläge Wind Luftdruck Luftfeuchtigkeit
    00:00 +21°C° 0 mm 1 m/S 743 mmHg 73%
    01:00 +21°C° 0 mm 1 m/S 743 mmHg 73%
    02:00 +21°C° 0 mm 1 m/S 743 mmHg 74%
    03:00 +19°C° 0 mm 2 m/S 743 mmHg 75%
    04:00 +19°C° 0 mm 2 m/S 744 mmHg 76%
    05:00 +20°C° 0 mm 2 m/S 744 mmHg 73%
    06:00 +20°C° 0 mm 2 m/S 744 mmHg 71%
    07:00 +21°C° 0 mm 2 m/S 744 mmHg 68%
    08:00 +24°C° 0 mm 2 m/S 744 mmHg 61%
    09:00 +26°C° 0 mm 2 m/S 744 mmHg 54%
    10:00 +27°C° 0 mm 2 m/S 745 mmHg 47%
    11:00 +29°C° 0 mm 2 m/S 744 mmHg 44%
    12:00 +30°C° 0 mm 2 m/S 744 mmHg 41%
    13:00 +31°C° 0 mm 2 m/S 743 mmHg 37%
    14:00 +30°C° 0 mm 2 m/S 743 mmHg 39%
    15:00 +30°C° 0 mm 3 m/S 743 mmHg 41%
    16:00 +29°C° 0 mm 3 m/S 743 mmHg 43%
    17:00 +27°C° 0 mm 2 m/S 743 mmHg 51%
    18:00 +25°C° 0 mm 2 m/S 743 mmHg 59%
    19:00 +23°C° 0 mm 1 m/S 743 mmHg 67%
    20:00 +22°C° 0 mm 1 m/S 743 mmHg 67%
    21:00 +22°C° 0 mm 1 m/S 742 mmHg 66%
    22:00 +22°C° 0 mm 1 m/S 742 mmHg 66%
    23:00 +21°C° 0 mm 1 m/S 742 mmHg 66%

    24 September, Montag

    Zeit Temperatur Niederschläge Wind Luftdruck Luftfeuchtigkeit
    00:00 +21°C° 0 mm 1 m/S 742 mmHg 66%
    01:00 +21°C° 0 mm 1 m/S 741 mmHg 66%
    02:00 +21°C° 0 mm 1 m/S 741 mmHg 66%
    03:00 +20°C° 0 mm 1 m/S 740 mmHg 67%
    04:00 +19°C° 0 mm 2 m/S 740 mmHg 67%
    05:00 +20°C° 0 mm 2 m/S 740 mmHg 65%
    06:00 +21°C° 0 mm 2 m/S 739 mmHg 63%
    07:00 +23°C° 0 mm 2 m/S 739 mmHg 60%
    08:00 +25°C° 0 mm 3 m/S 739 mmHg 57%
    09:00 +27°C° 0 mm 3 m/S 739 mmHg 53%
    10:00 +29°C° 0 mm 3 m/S 739 mmHg 50%
    11:00 +30°C° 0 mm 4 m/S 739 mmHg 48%
    12:00 +30°C° 0 mm 4 m/S 738 mmHg 47%
    13:00 +30°C° 0 mm 4 m/S 738 mmHg 46%
    14:00 +30°C° 0 mm 4 m/S 738 mmHg 48%
    15:00 +29°C° 0 mm 3 m/S 738 mmHg 50%
    16:00 +28°C° 0 mm 3 m/S 738 mmHg 52%
    17:00 +26°C° 0 mm 2 m/S 739 mmHg 61%
    18:00 +24°C° 0 mm 2 m/S 739 mmHg 70%
    19:00 +22°C° 0 mm 1 m/S 740 mmHg 79%
    20:00 +20°C° 0 mm 3 m/S 741 mmHg 75%
    21:00 +19°C° 0 mm 4 m/S 741 mmHg 71%
    22:00 +17°C° 0 mm 5 m/S 742 mmHg 67%
    23:00 +16°C° 0 mm 5 m/S 742 mmHg 66%
    Mehr zeigen